Погода в Лаврове

Россия / Орловская область     52°50′20″N   36°00′36″E
темп.,
°C
ветер,
м/с
пор.,
м/с
влажн.,
%
обл.,
%
осадки,
мм/ч
давл.,
гПа
погр.,
м
10 апреля, сб
сб1000:00+3ююз12674 0.0 102710
03:00+2ю11710 0.0 102710
06:00+1ююв22760 0.0 102811
09:00+5ю22610 0.0 1028301
12:00+8ююз33415 0.0 10271609
15:00+10юз34355 0.0 10261853
18:00+10юз23425 0.0 1025287
21:00+6юз22530 0.0 102611
11 апреля, вс
вс1100:00+4юз22600 0.0 102714
03:00+3з22630 0.0 102812
06:00+2зюз11660 0.0 102910
09:00+7юз01530 0.0 1030185
12:00+11св11420 0.0 1030834
15:00+13св33363 0.0 10291139
18:00+12всв35435 0.0 1029254
21:00+8всв3659100 0.0 103086
12 апреля, пн
пн1200:00+6всв3767100 0.0 1030122
03:00+4св41072100 0.0 1030188
06:00+3св41171100 0.0 1028245
09:00+7всв5971100 0.0 1027410
12:00+11в4670100 0.0 1026578
15:00+15в4563100 0.0 1024750
18:00+14всв3674100 0.0 1023145
21:00+11всв478595 0.0 1023117
13 апреля, вт
вт1300:00+10юв498195 0.0 1022132
03:00+10ююв4979100 0.0 1022120
06:00+9юв41085100 0.0 1022159
09:00+11юв5127895 0.0 1021316
12:00+16ююв7115681 0.0 10201251
15:00+17ю51052100 0.0 10201767
18:00+13зюз2480100 0.0 1020154
21:00+12з1185100 0.0 102010
14 апреля, ср
ср1400:00+11сз119086 0.1 102010
03:00+10сз1192100 0.1 101910
06:00+10с1193100 0.0 101812
09:00+10сз119197 0.1 101918
12:00+12з2181100 0.1 1019350
15:00+13зсз227484 0.2 1018450
18:00+13зсз117497 0.0 1018277
21:00+10с118540 0.0 101810